Regional Weather Roundup
Issued by NWS

Home | Current Version | Previous Version | Text Only | Print | Product List | Glossary Off
Versions: 1 2 3 4 5 6 7 8 9 10 11 12 13 14 15 16 17 18 19 20 21 22 23 24 25 26 27 28 29 30 31 32 33 34 35 36 37 38 39 40 41 42 43 44 45 46 47 48 49 50

000
ASUS43 KMKX 191011
RWRWI

WISCONSIN REGIONAL WEATHER ROUNDUP
NATIONAL WEATHER SERVICE MILWAUKEE/SULLIVAN WI
500 AM CDT TUE SEP 19 2017

NOTE: "FAIR" INDICATES FEW OR NO CLOUDS BELOW 12,000 FEET WITH NO
SIGNIFICANT WEATHER AND/OR OBSTRUCTIONS TO VISIBILITY.

WIZ001-002-006>008-014>016-023>028-191100-
NORTHWEST WISCONSIN

CITY           SKY/WX    TMP DP  RH WIND       PRES   REMARKS
SUPERIOR ARPT  CLOUDY    56  56 100 CALM      29.96F
ASHLAND        CLOUDY    57  54  89 E3        29.99F
HAYWARD        CLOUDY    58  54  86 SE3       29.98S
SIREN          CLOUDY    58  56  91 SE5       29.95S
CUMBERLAND     CLOUDY    55  54  94 CALM      29.96F
RICE LAKE      CLOUDY    58  56  94 E3        29.98S
CHETEK         CLOUDY    58  57  96 SE5       29.97S
LADYSMITH      CLOUDY    56  55  95 E5        30.00S
EAU CLAIRE     CLOUDY    58  56  93 E5        29.95S
MENOMONIE      CLOUDY    59  58  96 E5        29.96R
NEW RICHMOND   NOT AVBL
OSCEOLA        CLOUDY    59  59 100 E6        29.96F
$$

WIZ003>005-009-010-017-018-191100-
NORTH CENTRAL WISCONSIN

CITY           SKY/WX    TMP DP  RH WIND       PRES   REMARKS
MANITOWISH WTR CLOUDY    55  54  96 E3        30.02S
ARBOR VITAE    CLOUDY    57  54  89 SE3       30.02S
WOODRUFF       CLOUDY    57  54  89 SE3       30.02S
RHINELANDER    CLOUDY    52  52 100 E5        30.03S
EAGLE RIVER    CLOUDY    54  50  85 SE3       30.03S
LAND O LAKES   CLOUDY    54  51  90 CALM      30.05S
PHILLIPS       MOCLDY    54  53  97 CALM      30.00S
TOMAHAWK         N/A     53  49  89 CALM      30.02S
MEDFORD        CLEAR     52  51  94 E5        30.00S
MERRILL        CLEAR     52  52 100 E3        30.01F
$$

WIZ029-030-035-036-043>047-191100-
CENTRAL WISCONSIN

CITY           SKY/WX    TMP DP  RH WIND       PRES   REMARKS
WAUSAU         CLOUDY    54  52  93 E9        29.99F
MOSINEE        CLOUDY    54  52  94 E6        30.01S
MARSHFIELD     CLOUDY    55  51  86 E8        29.99S
STEVENS POINT  CLOUDY    54  53  97 E7        30.01S
WAUPACA        CLOUDY    59  54  83 NE3       30.00F
WAUTOMA        CLOUDY    57  53  86 E5        30.00S
WISC RAPIDS    CLOUDY    58  52  80 E5        30.00S
CAMP DOUGLAS   CLOUDY    57  55  92 SE5       29.98S
$$

WIZ011>013-019>022-031-037>040-048>050-191100-
NORTHEAST WISCONSIN

CITY           SKY/WX    TMP DP  RH WIND       PRES   REMARKS
ANTIGO         CLOUDY    54  51  90 E8        30.03S
SHAWANO        CLOUDY    60  56  85 N7        30.01S
OCONTO         CLOUDY    60  57  91 NE5       30.00F
STURGEON BAY   CLOUDY    60  57  89 NE5       30.03R
GREEN BAY      MOCLDY    60  59  96 NE9       30.00S
MANITOWOC      CLOUDY    58  56  93 N3        30.00S
APPLETON       CLOUDY    57  55  94 N5        29.99S
CLINTONVILLE   CLOUDY    57  52  82 NE3       30.01S
OSHKOSH        CLOUDY    61  58  90 NE6       29.99S
$$

WIZ032>034-041-042-053>061-191100-
SOUTHWEST WISCONSIN

CITY           SKY/WX    TMP DP  RH WIND       PRES   REMARKS
LA CROSSE      MOCLDY    60  59  96 SE6       29.95S
SPARTA         CLOUDY    55  55  97 CALM      29.98S
VIROQUA        CLEAR     55  55 100 E5        29.97S
BOSCOBEL       CLEAR     58  56  93 CALM      29.96S
PRAIRIE DU CHI CLEAR     57  55  93 CALM      29.95S
PLATTEVILLE    CLEAR     58  57  97 E5        29.97R
$$

WIZ056-057-062-063-064-067-068-191100-
SOUTH CENTRAL WISCONSIN

CITY           SKY/WX    TMP DP  RH WIND       PRES   REMARKS
REEDSBURG      PTCLDY    56  56 100 CALM      29.97S
BARABOO/DELLS  MOCLDY    56  53  89 E3        29.98S
LONE ROCK      MOCLDY    59  56  89 CALM      29.96F
MINERAL POINT  CLEAR     59  57  94 E6        29.97S
MADISON        CLOUDY    58  56  93 N5        29.97F
MIDDLETON      CLOUDY    58  56  93 NE5       29.98S
WATERTOWN      CLOUDY    59  59 100 CALM      29.98F
MONROE         MOCLDY    59  55  88 E3        29.96F
JANESVILLE     MOCLDY    61  61 100 CALM      29.96S
$$

WIZ051-052-058>065-066-070>072-191100-
SOUTHEAST WISCONSIN

CITY           SKY/WX    TMP DP  RH WIND       PRES   REMARKS
MILWAUKEE      CLOUDY    65  63  93 CALM      29.96S
WAUKESHA       CLOUDY    59  55  88 CALM      29.98S
MILWAUKEE/TIMM CLOUDY    61  55  82 CALM      29.98S
RACINE         CLOUDY    66  64  93 N5        29.98R
BURLINGTON     DRIZZLE   60  60 100 N3        29.97S
KENOSHA        CLOUDY    65  60  84 N6        29.96S
FOND DU LAC    PTCLDY    54  52  93 CALM      29.98F
SHEBOYGAN      CLOUDY    59  58  96 NE5       29.99R
WEST BEND        N/A     57  55  94 CALM      29.98S
JUNEAU         CLOUDY    57  55  92 CALM      29.99S
$$

LSZ147-162-191100-
LAKE SUPERIOR

STATION/POSITION TIME  TEMP    WIND        PRES    WAVE
                       AIR SEA DIR/SP/G            HT/PER
                 (UTC) (F)     (DEG/KT/KT) (MB)    (FT/S)
W MID LAKE BUOY  0950   57 55  140/  6/  6 1016.0F
DEVILS ISLAND    1000   59     120/  6/  7 1015.4F
PORT WING        0840   59     360/  2/  2 1015.2S
SAXON HARBOR     0940   58      CALM  /  2 1014.9S
$$

LMZ867-665-643>646-191100-
LAKE MICHIGAN

STATION/POSITION TIME  TEMP    WIND        PRES    WAVE
                       AIR SEA DIR/SP/G            HT/PER
                 (UTC) (F)     (DEG/KT/KT) (MB)    (FT/S)
S GREEN BAY BUOY 1000   64 66   80/ 16/ 17 1015.9
N MID LAKE BUOY  0950   63 64   90/ 14/ 17 1017.7F   2/ 4
NORTHPORT PIER   0940   64      80/ 11/ 15 1016.9S
KEWAUNEE LAKESHO 0948   60      10/  3/  6 1015.1R
SHEBOYGAN LAKESH 1000   63      10/  5/  6 1015.0R
PORT WASHINGTON  0930   63     330/  3/  4 1015.9R
ATWATER BUOY     0909   66 67   20/  6/ 10 1014.9S
MILWAUKEE LAKESH 0930   64      20/  6/  8   N/A
S MID LAKE BUOY  0950   67 68   90/ 12/ 12 1014.3R   2/ 3
KENOSHA   LAKESH 1000   67     360/  8/  9 1014.2
$$

TC  - TEMPERATURE IN CELSIUS
VSB - VISIBILITY IN STATUTE MILES
WCI - WIND CHILL INDEX
HX  - HEAT INDEX




USA.gov is the U.S. government's official web portal to all federal, state and local government web resources and services.